• In Hungary
  • List of Countries
  • For 7 days
  • Water Temperature
  • Satellite Maps
  • Weather Map
  • News
  • Weather Widgets
  • user-avatar
    Login

    Hourly Weather Turuntaevo

    Today, 22 October, Sunday

    Time Temperature Precipitation Wind Pressure Humidity
    00:00 +1°C° 0 mm 1 mps 721 mmHg 92%
    01:00 0°C° 0 mm 1 mps 721 mmHg 93%
    02:00 0°C° 0 mm 1 mps 721 mmHg 93%
    03:00 -2°C° 0 mm 2 mps 721 mmHg 93%
    04:00 -1°C° 0 mm 2 mps 721 mmHg 94%
    05:00 -1°C° 0 mm 2 mps 721 mmHg 94%
    06:00 -1°C° 0 mm 2 mps 721 mmHg 94%
    07:00 -1°C° 0 mm 2 mps 721 mmHg 92%
    08:00 +2°C° 0 mm 2 mps 721 mmHg 84%
    09:00 +4°C° 0 mm 2 mps 721 mmHg 75%
    10:00 +5°C° 0 mm 2 mps 720 mmHg 67%
    11:00 +7°C° 0 mm 3 mps 720 mmHg 63%
    12:00 +8°C° 0 mm 3 mps 719 mmHg 58%
    13:00 +9°C° 0 mm 3 mps 719 mmHg 53%
    14:00 +8°C° 0 mm 2 mps 718 mmHg 57%
    15:00 +7°C° 0 mm 2 mps 718 mmHg 62%
    16:00 +7°C° 0 mm 1 mps 718 mmHg 66%
    17:00 +6°C° 0 mm 1 mps 718 mmHg 69%
    18:00 +4°C° 0 mm 2 mps 718 mmHg 73%
    19:00 +3°C° 0 mm 2 mps 718 mmHg 77%
    20:00 +3°C° 0 mm 2 mps 717 mmHg 78%
    21:00 +2°C° 0 mm 2 mps 717 mmHg 79%
    22:00 +2°C° 0 mm 2 mps 717 mmHg 79%
    23:00 +2°C° 0 mm 2 mps 717 mmHg 80%

    Tomorrow, 23 October, Monday

    Time Temperature Precipitation Wind Pressure Humidity
    00:00 +2°C° 0 mm 2 mps 716 mmHg 81%
    01:00 +2°C° 0 mm 2 mps 716 mmHg 81%
    02:00 +1°C° 0 mm 2 mps 716 mmHg 81%
    03:00 +1°C° 0 mm 2 mps 715 mmHg 82%
    04:00 +1°C° 0 mm 2 mps 715 mmHg 82%
    05:00 +1°C° 0 mm 2 mps 715 mmHg 82%
    06:00 +1°C° 0 mm 2 mps 715 mmHg 81%
    07:00 +1°C° 0 mm 2 mps 715 mmHg 81%
    08:00 +4°C° 0 mm 1 mps 715 mmHg 72%
    09:00 +6°C° 0 mm 1 mps 715 mmHg 64%
    10:00 +8°C° 0 mm 1 mps 715 mmHg 55%
    11:00 +10°C° 0 mm 1 mps 715 mmHg 53%
    12:00 +11°C° 0 mm 1 mps 715 mmHg 50%
    13:00 +12°C° 0 mm 1 mps 715 mmHg 48%
    14:00 +11°C° 0 mm 1 mps 715 mmHg 53%
    15:00 +9°C° 0 mm 1 mps 715 mmHg 58%
    16:00 +8°C° 0 mm 1 mps 715 mmHg 64%
    17:00 +7°C° 0 mm 1 mps 716 mmHg 68%
    18:00 +6°C° 0 mm 1 mps 717 mmHg 73%
    19:00 +5°C° 0 mm 1 mps 718 mmHg 78%
    20:00 +4°C° 0.1 mm 2 mps 719 mmHg 81%
    21:00 +4°C° 0.1 mm 2 mps 720 mmHg 84%
    22:00 +4°C° 0.1 mm 2 mps 721 mmHg 87%
    23:00 +3°C° 0 mm 2 mps 721 mmHg 88%

    Day after tomorrow, 24 October, Tuesday

    Time Temperature Precipitation Wind Pressure Humidity
    00:00 +3°C° 0 mm 2 mps 722 mmHg 89%
    01:00 +2°C° 0 mm 2 mps 722 mmHg 89%
    02:00 +2°C° 0 mm 2 mps 722 mmHg 89%
    03:00 +2°C° 0 mm 1 mps 723 mmHg 89%
    04:00 +1°C° 0 mm 1 mps 723 mmHg 90%
    05:00 +1°C° 0 mm 1 mps 723 mmHg 89%
    06:00 +1°C° 0 mm 1 mps 723 mmHg 89%
    07:00 0°C° 0 mm 1 mps 724 mmHg 89%
    08:00 +2°C° 0 mm 1 mps 724 mmHg 77%
    09:00 +4°C° 0 mm 1 mps 724 mmHg 66%
    10:00 +6°C° 0 mm 1 mps 724 mmHg 54%
    11:00 +7°C° 0 mm 1 mps 723 mmHg 51%
    12:00 +8°C° 0 mm 1 mps 723 mmHg 49%
    13:00 +8°C° 0 mm 1 mps 722 mmHg 46%
    14:00 +7°C° 0 mm 1 mps 722 mmHg 50%
    15:00 +6°C° 0 mm 1 mps 722 mmHg 55%
    16:00 +5°C° 0 mm 1 mps 721 mmHg 60%
    17:00 +4°C° 0 mm 1 mps 721 mmHg 64%
    18:00 +3°C° 0 mm 1 mps 721 mmHg 68%
    19:00 +2°C° 0 mm 1 mps 721 mmHg 72%
    20:00 +2°C° 0 mm 1 mps 721 mmHg 74%
    21:00 +2°C° 0 mm 1 mps 721 mmHg 75%
    22:00 +2°C° 0 mm 1 mps 721 mmHg 77%
    23:00 +2°C° 0 mm 1 mps 720 mmHg 78%

    25 October, Wednesday

    Time Temperature Precipitation Wind Pressure Humidity
    00:00 +2°C° 0 mm 1 mps 720 mmHg 79%
    01:00 +1°C° 0 mm 1 mps 720 mmHg 80%
    02:00 +1°C° 0 mm 1 mps 719 mmHg 81%
    03:00 +1°C° 0 mm 1 mps 719 mmHg 81%
    04:00 +1°C° 0 mm 1 mps 718 mmHg 82%
    05:00 +1°C° 0 mm 1 mps 718 mmHg 83%
    06:00 +1°C° 0 mm 1 mps 718 mmHg 84%
    07:00 +1°C° 0 mm 1 mps 718 mmHg 85%
    08:00 +3°C° 0 mm 1 mps 718 mmHg 78%
    09:00 +5°C° 0 mm 1 mps 717 mmHg 71%
    10:00 +7°C° 0 mm 1 mps 717 mmHg 64%
    11:00 +8°C° 0 mm 1 mps 717 mmHg 61%
    12:00 +9°C° 0 mm 1 mps 716 mmHg 59%
    13:00 +10°C° 0 mm 1 mps 716 mmHg 57%
    14:00 +8°C° 0 mm 0 mps 716 mmHg 63%
    15:00 +7°C° 0 mm 0 mps 716 mmHg 68%
    16:00 +5°C° 0 mm 0 mps 715 mmHg 74%
    17:00 +4°C° 0 mm 0 mps 716 mmHg 78%
    18:00 +3°C° 0 mm 0 mps 716 mmHg 81%
    19:00 +2°C° 0 mm 0 mps 716 mmHg 85%
    20:00 +3°C° 0 mm 1 mps 716 mmHg 85%
    21:00 +3°C° 0 mm 1 mps 716 mmHg 85%
    22:00 +3°C° 0 mm 1 mps 716 mmHg 85%
    23:00 +3°C° 0 mm 1 mps 715 mmHg 85%

    26 October, Thursday

    Time Temperature Precipitation Wind Pressure Humidity
    00:00 +2°C° 0 mm 1 mps 715 mmHg 86%
    01:00 +2°C° 0 mm 1 mps 714 mmHg 87%
    02:00 +1°C° 0 mm 2 mps 714 mmHg 87%
    03:00 +1°C° 0 mm 2 mps 713 mmHg 88%
    04:00 +1°C° 0 mm 2 mps 713 mmHg 89%
    05:00 +1°C° 0 mm 2 mps 713 mmHg 89%
    06:00 +1°C° 0 mm 2 mps 712 mmHg 88%
    07:00 +1°C° 0 mm 2 mps 712 mmHg 88%
    08:00 +2°C° 0 mm 3 mps 712 mmHg 79%
    09:00 +4°C° 0 mm 3 mps 711 mmHg 70%
    10:00 +7°C° 0 mm 3 mps 711 mmHg 61%
    11:00 +8°C° 0 mm 3 mps 711 mmHg 60%
    12:00 +8°C° 0 mm 3 mps 710 mmHg 58%
    13:00 +9°C° 0 mm 3 mps 710 mmHg 56%
    14:00 +7°C° 0 mm 3 mps 710 mmHg 62%
    15:00 +5°C° 0 mm 3 mps 710 mmHg 69%
    16:00 +4°C° 0 mm 3 mps 711 mmHg 75%
    17:00 +3°C° 0.2 mm 3 mps 711 mmHg 78%
    18:00 +2°C° 0.2 mm 3 mps 712 mmHg 81%
    19:00 +2°C° 0.2 mm 3 mps 713 mmHg 84%
    20:00 0°C° 0.1 mm 4 mps 714 mmHg 82%
    21:00 0°C° 0.1 mm 4 mps 715 mmHg 81%
    22:00 -1°C° 0.1 mm 4 mps 715 mmHg 79%
    23:00 -2°C° 0 mm 4 mps 716 mmHg 76%

    27 October, Friday

    Time Temperature Precipitation Wind Pressure Humidity
    00:00 -2°C° 0 mm 4 mps 716 mmHg 74%
    01:00 -3°C° 0 mm 4 mps 717 mmHg 71%
    02:00 -3°C° 0 mm 4 mps 717 mmHg 71%
    03:00 -3°C° 0 mm 4 mps 718 mmHg 70%
    04:00 -3°C° 0 mm 4 mps 718 mmHg 70%
    05:00 -3°C° 0 mm 4 mps 719 mmHg 70%
    06:00 -3°C° 0 mm 4 mps 719 mmHg 71%
    07:00 -4°C° 0 mm 4 mps 720 mmHg 71%
    08:00 -4°C° 0.1 mm 5 mps 720 mmHg 68%
    09:00 -2°C° 0.1 mm 5 mps 720 mmHg 66%
    10:00 -3°C° 0.1 mm 6 mps 720 mmHg 63%
    11:00 -3°C° 0.2 mm 6 mps 720 mmHg 60%
    12:00 -2°C° 0.2 mm 7 mps 720 mmHg 58%
    13:00 -2°C° 0.2 mm 7 mps 721 mmHg 56%
    14:00 -3°C° 0.1 mm 6 mps 721 mmHg 56%
    15:00 -4°C° 0.1 mm 6 mps 722 mmHg 57%
    16:00 -5°C° 0.1 mm 6 mps 722 mmHg 57%
    17:00 -5°C° 0 mm 5 mps 723 mmHg 61%
    18:00 -4°C° 0 mm 4 mps 724 mmHg 64%
    19:00 -4°C° 0 mm 4 mps 724 mmHg 67%
    20:00 -4°C° 0.1 mm 4 mps 724 mmHg 71%
    21:00 -4°C° 0.1 mm 4 mps 725 mmHg 75%
    22:00 -4°C° 0.1 mm 4 mps 725 mmHg 79%
    23:00 -3°C° 0.2 mm 4 mps 725 mmHg 80%
    Show more